Location: Doverdale
(52.2833°N, 2.2000°W)
Time: 02:17:08
(UTC+00:00)

Meteor 2-3 Rocket - Pass Details

Date: 29 October 2020
Orbit: 843 x 885 km, 81.2° (Epoch: 27 November)

Event Time Altitude Azimuth Distance (km) Brightness Sun altitude
Rises 19:53:16 0° 345° (NNW) 3,458 7.3 -29.2°
Reaches altitude 10° 19:55:42 10° 342° (NNW) 2,523 6.5 -29.5°
Maximum altitude 20:01:22 65° 263° (W) 960 4.0 -30.4°
Enters shadow 20:01:54 62° 233° (SW) 984 4.0 -30.4°
